Theta_e
297 296 296 296 297 297 297 297 298 297 297 296 297 296 295 294 293 292 291 290 290 289
293 294 294 294 294 293 294 294 293 293 292 292 292 292 291 289 289 288 288 287 287 286
289 290 291 291 290 290 291 291 290 289 289 288 288 288 288 287 287 286 285 285 284 284
287 287 287 287 287 287 288 288 287 287 287 286 286 286 285 284 284 283 283 283 282 282
286 285 285 285 285 286 285 286 285 285 284 284 283 283 283 282 282 281 281 280 280 280
283 283 283 283 283 284 284 283 284 284 283 282 282 281 281 281 280 279 280 280 279 279
282 282 282 282 282 282 282 282 282 282 282 281 281 281 280 280 279 279 279 280 280 279
282 282 282 282 282 282 282 281 281 281 281 280 281 281 280 280 279 278 278 279 280 280
282 282 282 281 281 281 281 281 281 280 280 281 282 283 283 280 279 279 278 278 278 278
282 281 281 281 281 280 280 280 280 280 280 280 281 284 283 281 279 278 277 278 278 278
282 281 281 280 280 279 279 279 279 279 280 280 282 283 282 280 278 277 277 277 277 277
281 281 280 280 279 279 279 279 279 280 280 280 280 283 282 279 278 277 276 277 277 277
282 281 280 280 279 279 279 280 280 280 279 278 280 284 282 279 278 276 277 277 278 280
283 282 281 280 279 279 279 279 278 279 278 279 279 281 284 282 278 278 276 276 275 277
Wind_Speed
12 9 9 12 9 9 8 9 10 11 12 11 10 11 11 9 9 9 9 12 9 6
10 12 11 12 11 9 10 10 12 13 13 12 12 11 11 9 9 9 9 10 9 8
9 9 9 10 12 12 10 11 12 12 12 11 11 10 10 9 8 10 8 7 9 7
8 9 9 10 10 10 10 10 11 11 11 12 11 10 10 10 9 11 9 8 8 9
7 8 9 9 9 8 10 10 10 10 11 10 10 9 9 9 7 9 9 8 8 8
7 7 7 7 8 9 9 9 9 9 10 9 9 9 9 8 8 8 8 7 7 6
6 5 5 7 8 9 8 9 8 8 8 8 9 9 9 9 9 8 8 8 7 6
6 5 6 6 7 7 8 6 6 8 8 7 7 6 7 7 8 7 7 6 7 6
5 5 5 7 6 7 6 6 7 6 7 7 5 12 12 7 6 7 7 7 7 6
6 6 5 5 6 6 6 5 6 6 7 6 6 13 12 11 6 6 6 6 5 5
6 7 6 6 6 5 4 6 5 6 6 5 6 12 13 12 6 6 6 6 5 4
7 7 6 6 6 5 5 4 4 4 6 6 6 11 11 8 5 7 6 5 4 4
7 8 8 7 7 3 4 3 2 4 5 5 6 11 10 7 4 6 4 4 3 4
8 8 7 7 4 5 5 6 3 3 3 5 5 7 10 9 4 4 4 3 1 2
Wind_Direction
53 59 58 54 61 60 61 62 62 65 72 66 65 73 72 69 69 65 67 70 72 71
52 57 61 62 63 62 62 64 62 61 67 68 68 70 79 78 72 74 71 68 60 58
46 50 60 66 71 69 70 76 77 74 70 69 68 69 74 73 71 77 68 66 72 64
53 52 55 60 60 63 68 74 77 78 78 74 71 69 78 74 71 77 76 66 71 68
58 60 62 62 60 64 67 58 69 77 77 78 78 75 78 85 75 85 83 73 75 69
52 63 72 70 65 60 71 65 61 67 77 79 76 78 72 79 75 67 63 62 72 75
80 77 66 75 71 71 62 71 75 70 72 69 73 75 72 71 70 66 59 55 49 52
107 93 90 76 81 75 85 78 76 92 87 83 84 77 79 84 86 88 83 71 72 58
102 94 90 95 90 93 87 91 88 84 85 82 87 109 108 103 102 97 90 81 54 44
133 122 112 100 96 86 86 76 80 75 83 87 91 105 98 83 69 69 63 62 61 80
146 137 133 122 113 106 90 103 100 99 100 101 101 108 105 103 111 99 79 73 66 70
155 150 145 139 136 125 121 121 121 123 119 117 122 135 128 117 101 93 84 79 69 71
162 161 160 151 150 139 132 124 120 127 130 139 150 158 153 144 126 112 103 75 60 91
172 172 164 149 141 141 138 126 133 134 153 155 170 181 175 167 144 135 133 127 110 19